SCP
0 0 0 0 0 0 0 0 0 -0 0 0 -0 -0 -0 -0 -0 0 0 0 -0 0 0 0 -0 -0 -0 0 -0 0 0 0 0 0 0 0 0 0 0 0 0 0 0
-0 0 0 0 0 0 0 0 0 -0 -0 0 -0 -0 -0 -0 -0 -0 -0 -0 -0 0 0 0 -0 0 0 -0 -0 -0 -0 0 0 0 0 0 0 0 0 0 0 0 0
-0 0 0 0 0 0 0 0 0 -0 -0 -0 -0 -0 -0 -0 -0 -0 -0 -0 -0 -0 -0 0 0 -0 -0 -0 0 0 0 0 0 0 0 0 0 0 0 0 0 0 0
-0 0 -0 0 -0 0 0 0 0 0 0 0 0 0 -0 -0 -0 -0 -0 0 0 0 0 0 0 0 0 0 0 0 0 0 0 0 0 0 0 0 0 0 0 0 0
0 0 0 0 -0 0 0 0 0 0 0 0 0 0 0 0 0 0 0 0 0 0 0 0 0 -0 -0 -0 0 0 0 0 0 0 0 0 0 0 0 0 0 0 0
0 0 0 0 0 0 0 0 0 0 0 0 0 0 0 0 0 0 0 0 0 0 0 0 0 0 0 -0 -0 -0 0 0 0 0 0 0 0 0 0 0 0 0 0
0 0 0 0 0 0 0 0 0 0 0 0 0 0 0 0 0 0 0 0 0 0 0 0 0 0 0 0 0 0 0 0 0 0 0 0 0 0 0 0 0 0 0
0 0 0 0 0 0 0 0 0 0 0 0 0 0 0 0 0 0 0 0 0 0 0 0 0 0 0 0 0 0 0 0 0 0 0 0 0 0 0 0 0 0 0
0 0 -0 0 0 -0 -0 0 0 0 0 0 0 0 0 0 0 0 0 0 0 0 0 0 0 0 0 0 0 0 0 0 0 0 0 0 0 0 0 0 0 0 0
0 0 0 -0 -0 -0 -0 -0 0 0 0 0 0 0 0 0 0 0 0 0 0 0 0 0 0 0 0 0 0 0 0 0 0 0 0 0 0 0 0 0 0 0 0
0 0 0 0 0 0 -0 0 0 -0 0 0 0 0 0 0 0 0 0 0 0 0 0 0 0 0 0 0 0 0 0 0 0 0 0 0 0 0 0 0 0 0 0
0 0 0 0 0 0 0 0 -0 -0 0 0 0 0 0 0 0 0 0 0 0 0 0 0 0 0 0 0 0 0 0 0 0 0 0 0 0 0 0 0 0 0 0
0 0 0 0 0 0 0 0 0 0 0 0 0 0 0 0 0 0 0 0 0 0 0 0 0 0 0 0 0 0 0 0 0 0 0 0 0 0 0 0 0 0 0
0 0 0 0 0 0 0 0 0 0 0 0 0 0 0 0 0 0 0 0 0 0 0 0 0 0 0 0 0 0 0 0 0 0 0 0 0 0 0 0 0 0 0
0 0 0 0 0 0 0 0 0 0 0 0 0 0 0 0 0 0 0 0 0 0 0 0 0 0 0 0 0 0 0 0 0 0 0 0 0 0 0 0 0 0 0
0 0 0 0 0 0 0 0 0 0 0 0 0 0 0 0 0 0 0 0 0 0 0 0 0 0 0 0 0 0 0 0 0 0 0 0 0 0 0 0 0 0 0
0 0 0 0 0 0 0 0 0 0 0 0 0 0 0 0 0 0 0 0 0 0 0 0 0 0 0 0 0 0 0 0 0 0 0 0 0 0 0 0 0 0 0
0 0 0 0 0 0 0 0 0 0 0 0 0 0 0 0 0 0 0 0 0 0 0 0 0 0 0 0 0 0 0 0 0 0 0 0 0 0 0 0 0 0 0
0 0 0 0 0 0 0 0 0 0 0 0 0 0 0 0 0 0 0 0 0 0 0 0 0 0 0 0 0 0 0 0 0 0 0 0 0 0 0 0 0 0 0
0 0 0 0 0 0 0 0 0 0 0 0 0 -0 0 0 0 -0 -0 0 0 0 0 0 0 0 0 0 0 0 0 0 0 0 0 0 0 0 0 0 0 0 0
0 0 0 0 0 0 0 0 0 0 0 0 0 -0 -0 0 -0 -0 0 -0 0 -0 0 0 0 0 0 0 0 0 0 0 0 0 0 0 0 0 0 0 0 0 0
0 0 0 0 0 -0 -0 -0 0 0 0 0 0 0 0 -0 0 0 0 0 0 0 0 0 0 0 0 0 0 0 0 0 0 0 0 0 0 0 0 0 0 0 0
0 0 0 -0 -0 -0 -0 0 0 0 0 0 0 0 0 0 0 0 0 0 0 0 0 0 0 0 0 0 0 0 0 0 0 0 0 0 0 0 0 0 0 0 0
0 0 0 -0 -0 -0 -0 -0 -0 -0 -0 0 0 0 0 0 0 0 0 0 0 0 0 0 0 0 0 0 0 0 0 0 0 0 0 0 0 0 0 0 0 0 0
0 0 0 0 0 0 0 0 0 0 0 0 0 0 0 0 0 0 0 0 0 0 0 0 0 0 0 0 0 0 0 0 0 0 0 0 0 0 0 0 0 0 0
0 0 0 0 0 0 0 0 0 0 0 0 0 0 0 0 0 0 0 0 0 0 0 0 0 0 0 0 0 0 0 0 0 0 0 0 0 0 0 0 0 0 0
Wind_Speed_500mb
24 11 6 4 4 8 11 9 14 17 19 19 21 21 20 20 21 21 20 18 13 11 4 2 5 10 20 23 20 17 17 18 23 22 23 26 24 21 17 20 18 13 10
26 10 5 5 6 11 9 10 13 15 17 21 22 21 21 23 23 24 26 26 18 17 19 12 9 10 11 15 16 16 19 22 25 27 28 29 25 20 14 9 8 7 5
26 21 17 8 6 8 10 9 10 14 16 21 23 23 24 25 26 28 27 25 20 20 15 14 19 10 5 6 10 11 12 13 16 18 18 23 18 12 9 10 7 5 6
24 24 17 9 5 5 7 7 7 10 13 17 19 22 24 26 30 30 28 27 25 24 20 16 14 12 12 5 1 2 3 6 8 10 14 22 19 11 11 9 8 4 2
21 21 17 13 5 2 6 6 4 6 9 12 16 18 21 22 28 29 29 30 30 29 27 24 22 19 16 12 11 11 10 7 8 7 12 13 13 10 10 6 7 3 2
18 17 16 13 9 4 4 6 5 4 4 8 10 13 15 16 21 24 24 25 25 25 26 26 25 24 23 19 16 13 10 12 7 6 5 6 6 6 7 11 6 4 8
22 20 18 13 8 6 14 13 13 10 4 2 5 8 9 12 18 20 20 18 19 20 22 24 23 23 21 18 15 12 11 10 8 10 6 4 4 7 10 9 8 9 9
18 15 15 10 6 9 24 14 22 18 12 7 4 2 4 8 14 17 19 17 16 15 15 16 18 19 20 19 17 12 12 11 14 14 13 7 5 3 2 4 9 10 8
19 17 13 21 16 10 32 24 31 25 23 15 12 5 2 2 6 11 16 16 15 15 15 14 13 14 15 16 15 13 12 12 17 16 16 17 17 13 5 3 6 8 12
29 24 29 16 25 24 21 23 37 29 25 19 14 11 8 5 3 4 9 12 12 14 16 14 11 10 10 11 13 10 10 13 14 12 12 12 16 19 16 10 11 14 15
30 28 31 37 41 45 25 31 32 29 27 20 14 11 10 9 7 5 4 3 3 8 14 17 13 12 12 11 11 9 8 9 9 10 10 14 20 23 18 14 11 9 11
36 30 22 30 34 40 39 39 35 31 31 24 15 10 11 12 11 11 11 12 7 1 6 9 10 10 13 15 14 11 9 7 7 6 5 13 20 18 16 15 14 12 9
38 38 31 29 30 29 35 43 47 36 33 24 15 12 9 12 11 10 11 13 12 2 4 3 7 12 15 16 17 16 13 14 11 9 12 17 17 14 14 18 15 14 13
46 39 38 32 12 13 15 22 36 27 31 21 17 13 9 11 12 10 13 13 11 5 4 8 12 13 12 15 17 17 17 16 15 15 16 18 17 15 16 16 17 14 14
28 24 20 7 8 8 18 27 24 27 20 23 14 15 10 12 11 11 11 10 9 11 14 12 9 9 8 9 11 13 12 11 14 18 20 18 16 15 16 19 20 17 15
15 10 10 9 12 14 21 23 27 21 22 15 15 11 10 11 10 11 12 10 13 16 15 9 11 12 13 12 10 9 10 12 16 19 19 16 15 15 14 15 14 12 10
14 14 13 13 14 15 15 13 17 16 12 8 8 9 11 12 11 11 11 14 14 18 12 10 12 10 9 10 12 13 13 14 20 23 18 14 16 18 13 14 16 16 13
17 20 23 21 19 18 18 17 15 12 12 14 16 13 11 10 11 12 13 13 16 18 12 9 5 1 4 7 9 11 10 13 19 20 23 17 13 24 15 13 14 15 15
26 26 27 27 26 23 22 24 24 23 20 18 18 15 13 12 12 13 14 18 20 15 8 5 3 4 6 9 13 14 13 15 17 19 20 21 20 17 13 13 17 19 20
35 37 37 34 36 40 44 42 38 34 30 27 24 21 18 15 15 20 23 22 17 13 11 10 7 3 4 2 5 7 10 12 15 17 18 19 19 17 18 20 22 25 23
42 40 38 41 40 42 38 33 27 22 19 17 16 15 13 14 15 18 14 16 12 13 12 12 11 8 10 13 12 11 9 11 16 21 23 22 21 20 21 25 28 28 28
41 40 38 38 37 35 29 24 19 14 11 9 9 9 9 9 11 14 16 15 17 18 20 24 25 26 27 28 29 28 25 26 30 32 32 32 34 36 37 38 39 37 36
38 40 41 37 35 31 25 18 15 16 13 12 19 25 25 19 16 18 19 21 21 23 24 26 30 34 35 38 34 32 41 35 35 34 36 40 44 45 47 45 42 42 43
36 39 39 36 33 32 27 24 20 17 17 17 16 19 24 29 32 28 23 23 29 33 35 35 31 27 31 32 32 35 37 39 37 38 39 44 49 53 51 51 50 50 49
36 40 36 32 34 36 33 30 27 25 19 17 20 23 25 26 36 38 32 24 19 24 26 26 27 26 29 31 34 37 38 39 44 50 56 58 57 54 52 51 49 47 46
37 39 37 35 35 35 32 29 25 21 21 25 26 24 17 17 23 25 23 21 21 23 23 24 26 28 33 37 41 47 52 55 54 50 45 42 40 40 39 39 39 40 40
Wind_Direction_500mb
192 171 135 123 32 10 8 38 42 33 33 36 49 48 52 49 47 45 44 40 35 43 30 284 339 219 208 211 210 213 225 233 224 211 222 226 240 250 265 281 283 288 308
164 163 132 109 38 18 39 56 50 38 38 44 56 59 61 59 59 57 54 52 49 54 54 55 66 112 168 196 215 228 231 235 233 242 228 219 220 242 246 267 276 288 296
151 175 169 128 51 32 42 56 48 44 49 55 60 67 69 69 65 59 54 52 48 52 62 73 80 86 148 212 243 244 245 242 241 250 219 211 225 211 226 245 222 257 321
166 166 157 155 127 55 42 48 42 44 57 66 63 65 68 69 68 64 60 59 55 56 57 64 80 87 88 108 142 217 239 236 224 231 228 217 205 218 217 231 245 254 11
178 174 173 176 156 128 27 27 14 37 55 69 67 67 70 72 69 65 65 64 64 62 62 62 67 66 66 69 79 87 73 88 113 170 201 206 225 195 242 269 267 271 18
203 190 192 198 174 188 291 324 312 326 33 70 71 72 73 72 76 67 59 58 58 63 67 65 66 67 65 68 69 68 82 101 111 141 184 210 237 236 287 293 252 241 307
207 201 207 201 126 7 313 302 290 277 287 81 69 62 72 73 70 66 65 57 50 58 62 62 58 60 62 57 55 56 69 92 138 125 152 213 275 303 299 277 217 291 295
205 209 225 202 179 320 244 282 279 265 253 224 191 90 52 68 69 59 60 67 68 74 74 64 56 49 49 47 38 36 50 61 66 88 94 85 63 6 298 269 277 295 297
205 203 232 223 178 112 178 262 278 248 242 232 216 210 178 86 76 60 63 65 68 70 65 56 52 43 37 36 28 31 45 60 74 73 71 66 55 38 13 342 333 301 311
216 222 217 219 198 220 237 252 255 241 234 234 224 229 211 202 172 98 78 71 63 57 50 42 35 32 26 24 24 50 62 78 80 70 56 40 25 15 4 326 287 286 294
217 241 244 226 232 234 251 259 252 223 221 220 216 233 241 242 235 202 184 132 61 37 33 18 13 25 34 40 49 53 47 40 30 22 21 12 9 9 16 15 4 326 285
228 250 276 260 239 236 247 250 243 212 209 208 209 226 243 248 244 238 207 223 221 301 2 2 6 37 44 43 41 42 28 1 333 329 357 358 0 4 5 0 357 9 18
243 261 271 284 277 260 261 249 209 204 209 202 210 233 228 266 241 226 220 245 231 253 327 32 84 75 56 48 43 36 33 43 43 22 354 344 342 342 350 358 340 321 313
268 269 276 278 276 240 234 226 202 203 206 204 223 234 243 236 229 235 232 211 205 210 166 127 98 78 59 45 46 47 49 47 36 21 6 347 333 313 308 318 336 315 307
256 259 259 225 198 184 190 193 187 199 213 214 233 242 252 225 215 201 186 185 190 173 154 138 109 77 48 21 10 10 6 5 0 353 350 351 343 327 312 307 302 312 310
216 200 177 175 177 182 189 197 193 210 203 217 235 229 208 197 190 184 175 170 164 160 164 151 116 91 74 56 34 14 12 4 350 342 339 341 348 340 327 326 331 320 315
176 165 165 169 175 177 190 189 207 203 210 201 205 198 196 196 192 194 185 172 179 179 173 160 129 97 68 42 32 25 23 11 0 354 344 311 314 325 322 330 323 321 316
161 159 151 157 163 167 167 172 175 169 193 197 210 209 207 202 194 184 181 179 172 168 162 162 158 108 306 320 334 340 345 346 348 349 353 333 310 336 304 302 331 324 316
153 158 156 150 148 151 153 149 141 139 140 140 138 137 139 150 154 154 154 150 153 159 164 175 237 279 298 308 309 313 318 331 338 345 341 340 318 316 323 302 314 309 308
146 141 138 136 133 129 127 126 126 124 120 115 113 111 106 111 128 143 145 148 149 150 154 157 158 195 224 293 330 317 310 316 326 330 335 332 335 303 294 300 307 308 303
151 148 145 141 138 140 139 139 137 135 135 133 126 114 110 111 121 151 155 178 204 217 215 218 234 251 263 273 290 297 296 282 291 305 310 314 313 307 300 298 301 301 291
165 164 158 154 157 158 160 165 172 184 197 206 208 200 189 188 189 190 196 210 229 239 246 254 261 267 271 273 274 278 291 303 305 303 301 299 297 294 289 288 288 289 289
184 181 174 170 170 171 180 193 210 223 225 235 245 239 236 222 216 213 219 232 245 254 262 267 269 271 269 277 271 285 281 283 293 293 295 293 295 298 296 294 291 289 288
194 187 184 184 191 197 204 210 213 215 230 227 236 246 249 238 224 227 235 252 267 275 274 273 280 279 279 281 271 280 282 289 289 291 294 296 297 298 296 293 291 290 288
201 194 199 213 215 216 219 220 220 221 226 259 266 258 252 252 230 229 238 266 282 281 276 272 268 277 283 284 285 289 289 289 293 298 301 301 300 299 297 296 295 294 292
200 204 217 225 218 218 220 224 229 236 278 290 273 261 241 258 245 244 251 268 270 270 272 277 283 286 287 289 290 294 297 300 303 304 305 306 306 306 306 305 303 301 297
Wind_Speed_850mb
24 11 6 4 4 8 11 9 14 17 19 19 21 21 20 20 21 21 20 18 13 11 4 2 5 10 20 23 20 17 17 18 23 22 23 26 24 21 17 20 18 13 10
26 10 5 5 6 11 9 10 13 15 17 21 22 21 21 23 23 24 26 26 18 17 19 12 9 10 11 15 16 16 19 22 25 27 28 29 25 20 14 9 8 7 5
26 21 17 8 6 8 10 9 10 14 16 21 23 23 24 25 26 28 27 25 20 20 15 14 19 10 5 6 10 11 12 13 16 18 18 23 18 12 9 10 7 5 6
24 24 17 9 5 5 7 7 7 10 13 17 19 22 24 26 30 30 28 27 25 24 20 16 14 12 12 5 1 2 3 6 8 10 14 22 19 11 11 9 8 4 2
21 21 17 13 5 2 6 6 4 6 9 12 16 18 21 22 28 29 29 30 30 29 27 24 22 19 16 12 11 11 10 7 8 7 12 13 13 10 10 6 7 3 2
18 17 16 13 9 4 4 6 5 4 4 8 10 13 15 16 21 24 24 25 25 25 26 26 25 24 23 19 16 13 10 12 7 6 5 6 6 6 7 11 6 4 8
22 20 18 13 8 6 14 13 13 10 4 2 5 8 9 12 18 20 20 18 19 20 22 24 23 23 21 18 15 12 11 10 8 10 6 4 4 7 10 9 8 9 9
18 15 15 10 6 9 24 14 22 18 12 7 4 2 4 8 14 17 19 17 16 15 15 16 18 19 20 19 17 12 12 11 14 14 13 7 5 3 2 4 9 10 8
19 17 13 21 16 10 32 24 31 25 23 15 12 5 2 2 6 11 16 16 15 15 15 14 13 14 15 16 15 13 12 12 17 16 16 17 17 13 5 3 6 8 12
29 24 29 16 25 24 21 23 37 29 25 19 14 11 8 5 3 4 9 12 12 14 16 14 11 10 10 11 13 10 10 13 14 12 12 12 16 19 16 10 11 14 15
30 28 31 37 41 45 25 31 32 29 27 20 14 11 10 9 7 5 4 3 3 8 14 17 13 12 12 11 11 9 8 9 9 10 10 14 20 23 18 14 11 9 11
36 30 22 30 34 40 39 39 35 31 31 24 15 10 11 12 11 11 11 12 7 1 6 9 10 10 13 15 14 11 9 7 7 6 5 13 20 18 16 15 14 12 9
38 38 31 29 30 29 35 43 47 36 33 24 15 12 9 12 11 10 11 13 12 2 4 3 7 12 15 16 17 16 13 14 11 9 12 17 17 14 14 18 15 14 13
46 39 38 32 12 13 15 22 36 27 31 21 17 13 9 11 12 10 13 13 11 5 4 8 12 13 12 15 17 17 17 16 15 15 16 18 17 15 16 16 17 14 14
28 24 20 7 8 8 18 27 24 27 20 23 14 15 10 12 11 11 11 10 9 11 14 12 9 9 8 9 11 13 12 11 14 18 20 18 16 15 16 19 20 17 15
15 10 10 9 12 14 21 23 27 21 22 15 15 11 10 11 10 11 12 10 13 16 15 9 11 12 13 12 10 9 10 12 16 19 19 16 15 15 14 15 14 12 10
14 14 13 13 14 15 15 13 17 16 12 8 8 9 11 12 11 11 11 14 14 18 12 10 12 10 9 10 12 13 13 14 20 23 18 14 16 18 13 14 16 16 13
17 20 23 21 19 18 18 17 15 12 12 14 16 13 11 10 11 12 13 13 16 18 12 9 5 1 4 7 9 11 10 13 19 20 23 17 13 24 15 13 14 15 15
26 26 27 27 26 23 22 24 24 23 20 18 18 15 13 12 12 13 14 18 20 15 8 5 3 4 6 9 13 14 13 15 17 19 20 21 20 17 13 13 17 19 20
35 37 37 34 36 40 44 42 38 34 30 27 24 21 18 15 15 20 23 22 17 13 11 10 7 3 4 2 5 7 10 12 15 17 18 19 19 17 18 20 22 25 23
42 40 38 41 40 42 38 33 27 22 19 17 16 15 13 14 15 18 14 16 12 13 12 12 11 8 10 13 12 11 9 11 16 21 23 22 21 20 21 25 28 28 28
41 40 38 38 37 35 29 24 19 14 11 9 9 9 9 9 11 14 16 15 17 18 20 24 25 26 27 28 29 28 25 26 30 32 32 32 34 36 37 38 39 37 36
38 40 41 37 35 31 25 18 15 16 13 12 19 25 25 19 16 18 19 21 21 23 24 26 30 34 35 38 34 32 41 35 35 34 36 40 44 45 47 45 42 42 43
36 39 39 36 33 32 27 24 20 17 17 17 16 19 24 29 32 28 23 23 29 33 35 35 31 27 31 32 32 35 37 39 37 38 39 44 49 53 51 51 50 50 49
36 40 36 32 34 36 33 30 27 25 19 17 20 23 25 26 36 38 32 24 19 24 26 26 27 26 29 31 34 37 38 39 44 50 56 58 57 54 52 51 49 47 46
37 39 37 35 35 35 32 29 25 21 21 25 26 24 17 17 23 25 23 21 21 23 23 24 26 28 33 37 41 47 52 55 54 50 45 42 40 40 39 39 39 40 40
Wind_Direction_850mb
192 171 135 123 32 10 8 38 42 33 33 36 49 48 52 49 47 45 44 40 35 43 30 284 339 219 208 211 210 213 225 233 224 211 222 226 240 250 265 281 283 288 308
164 163 132 109 38 18 39 56 50 38 38 44 56 59 61 59 59 57 54 52 49 54 54 55 66 112 168 196 215 228 231 235 233 242 228 219 220 242 246 267 276 288 296
151 175 169 128 51 32 42 56 48 44 49 55 60 67 69 69 65 59 54 52 48 52 62 73 80 86 148 212 243 244 245 242 241 250 219 211 225 211 226 245 222 257 321
166 166 157 155 127 55 42 48 42 44 57 66 63 65 68 69 68 64 60 59 55 56 57 64 80 87 88 108 142 217 239 236 224 231 228 217 205 218 217 231 245 254 11
178 174 173 176 156 128 27 27 14 37 55 69 67 67 70 72 69 65 65 64 64 62 62 62 67 66 66 69 79 87 73 88 113 170 201 206 225 195 242 269 267 271 18
203 190 192 198 174 188 291 324 312 326 33 70 71 72 73 72 76 67 59 58 58 63 67 65 66 67 65 68 69 68 82 101 111 141 184 210 237 236 287 293 252 241 307
207 201 207 201 126 7 313 302 290 277 287 81 69 62 72 73 70 66 65 57 50 58 62 62 58 60 62 57 55 56 69 92 138 125 152 213 275 303 299 277 217 291 295
205 209 225 202 179 320 244 282 279 265 253 224 191 90 52 68 69 59 60 67 68 74 74 64 56 49 49 47 38 36 50 61 66 88 94 85 63 6 298 269 277 295 297
205 203 232 223 178 112 178 262 278 248 242 232 216 210 178 86 76 60 63 65 68 70 65 56 52 43 37 36 28 31 45 60 74 73 71 66 55 38 13 342 333 301 311
216 222 217 219 198 220 237 252 255 241 234 234 224 229 211 202 172 98 78 71 63 57 50 42 35 32 26 24 24 50 62 78 80 70 56 40 25 15 4 326 287 286 294
217 241 244 226 232 234 251 259 252 223 221 220 216 233 241 242 235 202 184 132 61 37 33 18 13 25 34 40 49 53 47 40 30 22 21 12 9 9 16 15 4 326 285
228 250 276 260 239 236 247 250 243 212 209 208 209 226 243 248 244 238 207 223 221 301 2 2 6 37 44 43 41 42 28 1 333 329 357 358 0 4 5 0 357 9 18
243 261 271 284 277 260 261 249 209 204 209 202 210 233 228 266 241 226 220 245 231 253 327 32 84 75 56 48 43 36 33 43 43 22 354 344 342 342 350 358 340 321 313
268 269 276 278 276 240 234 226 202 203 206 204 223 234 243 236 229 235 232 211 205 210 166 127 98 78 59 45 46 47 49 47 36 21 6 347 333 313 308 318 336 315 307
256 259 259 225 198 184 190 193 187 199 213 214 233 242 252 225 215 201 186 185 190 173 154 138 109 77 48 21 10 10 6 5 0 353 350 351 343 327 312 307 302 312 310
216 200 177 175 177 182 189 197 193 210 203 217 235 229 208 197 190 184 175 170 164 160 164 151 116 91 74 56 34 14 12 4 350 342 339 341 348 340 327 326 331 320 315
176 165 165 169 175 177 190 189 207 203 210 201 205 198 196 196 192 194 185 172 179 179 173 160 129 97 68 42 32 25 23 11 0 354 344 311 314 325 322 330 323 321 316
161 159 151 157 163 167 167 172 175 169 193 197 210 209 207 202 194 184 181 179 172 168 162 162 158 108 306 320 334 340 345 346 348 349 353 333 310 336 304 302 331 324 316
153 158 156 150 148 151 153 149 141 139 140 140 138 137 139 150 154 154 154 150 153 159 164 175 237 279 298 308 309 313 318 331 338 345 341 340 318 316 323 302 314 309 308
146 141 138 136 133 129 127 126 126 124 120 115 113 111 106 111 128 143 145 148 149 150 154 157 158 195 224 293 330 317 310 316 326 330 335 332 335 303 294 300 307 308 303
151 148 145 141 138 140 139 139 137 135 135 133 126 114 110 111 121 151 155 178 204 217 215 218 234 251 263 273 290 297 296 282 291 305 310 314 313 307 300 298 301 301 291
165 164 158 154 157 158 160 165 172 184 197 206 208 200 189 188 189 190 196 210 229 239 246 254 261 267 271 273 274 278 291 303 305 303 301 299 297 294 289 288 288 289 289
184 181 174 170 170 171 180 193 210 223 225 235 245 239 236 222 216 213 219 232 245 254 262 267 269 271 269 277 271 285 281 283 293 293 295 293 295 298 296 294 291 289 288
194 187 184 184 191 197 204 210 213 215 230 227 236 246 249 238 224 227 235 252 267 275 274 273 280 279 279 281 271 280 282 289 289 291 294 296 297 298 296 293 291 290 288
201 194 199 213 215 216 219 220 220 221 226 259 266 258 252 252 230 229 238 266 282 281 276 272 268 277 283 284 285 289 289 289 293 298 301 301 300 299 297 296 295 294 292
200 204 217 225 218 218 220 224 229 236 278 290 273 261 241 258 245 244 251 268 270 270 272 277 283 286 287 289 290 294 297 300 303 304 305 306 306 306 306 305 303 301 297